Terminal Aerodrome Forecast
Issued by NWS

Home | Current Version | Previous Version | Text Only | Print | Product List | Glossary On
Versions: 1 2 3 4 5 6 7 8 9 10 11 12 13 14 15 16 17 18 19 20 21 22 23 24 25 26 27 28 29 30 31 32 33 34
000
FTUS43 KDDC 031137
TAFGCK
TAF
KGCK 031137Z 0312/0412 19023G33KT P6SM SCT012 BKN200
     FM031300 23012KT P6SM BKN200
     FM031600 36013G23KT P6SM SCT015 SCT200
     FM040800 04020G27KT P6SM OVC025
     FM041100 04019G26KT 4SM -SN OVC015=

USA.gov is the U.S. government's official web portal to all federal, state and local government web resources and services.